TimeEST,TemperatureF,Dew PointF,Humidity,Sea Level PressureIn,VisibilityMPH,Wind Direction,Wind SpeedMPH,Gust SpeedMPH,PrecipitationIn,Events,Conditions,WindDirDegrees,DateUTC
12:15 AM,39.2,37.4,93,30.10,1.5,Calm,Calm,-,N/A,,Mist,0,2012-11-21 05:15:00
12:35 AM,39.2,37.4,93,30.11,5.0,Calm,Calm,-,N/A,,Clear,0,2012-11-21 05:35:00
12:55 AM,37.4,37.4,100,30.11,0.8,Calm,Calm,-,N/A,,Mist,0,2012-11-21 05:55:00
1:15 AM,37.4,37.4,100,30.11,5.0,NNW,3.5,-,N/A,,Clear,340,2012-11-21 06:15:00
1:35 AM,41.0,39.2,93,30.10,10.0,Calm,Calm,-,N/A,,Clear,0,2012-11-21 06:35:00
1:55 AM,39.2,37.4,93,30.10,5.0,Calm,Calm,-,N/A,,Clear,0,2012-11-21 06:55:00
2:15 AM,39.2,37.4,93,30.10,5.0,Calm,Calm,-,N/A,,Clear,0,2012-11-21 07:15:00
2:35 AM,35.6,35.6,100,30.11,3.0,Calm,Calm,-,N/A,,Clear,0,2012-11-21 07:35:00
2:55 AM,35.6,35.6,100,30.11,2.0,North,3.5,-,N/A,,Clear,350,2012-11-21 07:55:00
3:15 AM,37.4,37.4,100,30.10,4.0,Calm,Calm,-,N/A,,Clear,0,2012-11-21 08:15:00
3:35 AM,37.4,37.4,100,30.10,3.0,Calm,Calm,-,N/A,,Clear,0,2012-11-21 08:35:00
3:55 AM,37.4,35.6,93,30.10,1.5,North,3.5,-,N/A,,Mist,350,2012-11-21 08:55:00
4:15 AM,37.4,37.4,100,30.11,3.0,Calm,Calm,-,N/A,,Clear,0,2012-11-21 09:15:00
4:35 AM,35.6,35.6,100,30.11,0.5,Calm,Calm,-,N/A,Fog,Fog,0,2012-11-21 09:35:00
4:55 AM,37.4,35.6,93,30.12,3.0,North,4.6,-,N/A,,Clear,350,2012-11-21 09:55:00
5:15 AM,37.4,35.6,93,30.12,4.0,North,4.6,-,N/A,,Clear,350,2012-11-21 10:15:00
5:35 AM,37.4,35.6,93,30.12,3.0,North,5.8,-,N/A,,Clear,350,2012-11-21 10:35:00
5:55 AM,35.6,35.6,100,30.12,3.0,North,5.8,-,N/A,,Clear,350,2012-11-21 10:55:00
6:15 AM,35.6,35.6,100,30.13,2.5,North,3.5,-,N/A,,Clear,360,2012-11-21 11:15:00
6:55 AM,35.6,35.6,100,30.14,0.5,North,4.6,-,N/A,Fog,Fog,350,2012-11-21 11:55:00
7:15 AM,35.6,35.6,100,30.14,0.2,North,3.5,-,N/A,Fog,Fog,360,2012-11-21 12:15:00
7:35 AM,35.6,35.6,100,30.15,0.2,North,4.6,-,N/A,Fog,Fog,360,2012-11-21 12:35:00
7:55 AM,37.4,35.6,93,30.16,0.8,North,4.6,-,N/A,,Overcast,360,2012-11-21 12:55:00
8:15 AM,37.4,35.6,93,30.16,0.5,North,5.8,-,N/A,Fog,Fog,350,2012-11-21 13:15:00
8:35 AM,37.4,37.4,100,30.17,0.8,North,6.9,-,N/A,,Overcast,350,2012-11-21 13:35:00
8:55 AM,41.0,39.2,93,30.17,2.5,North,4.6,-,N/A,,Overcast,10,2012-11-21 13:55:00
9:15 AM,41.0,39.2,93,30.17,4.0,NNE,6.9,-,N/A,,Scattered Clouds,20,2012-11-21 14:15:00
9:35 AM,41.0,41.0,100,30.17,5.0,NNE,5.8,-,N/A,,Clear,20,2012-11-21 14:35:00
9:55 AM,42.8,42.8,100,30.18,7.0,North,6.9,-,N/A,,Clear,360,2012-11-21 14:55:00
10:15 AM,44.6,41.0,87,30.18,7.0,North,4.6,-,N/A,,Clear,360,2012-11-21 15:15:00
10:35 AM,46.4,41.0,81,30.18,10.0,NNE,6.9,-,N/A,,Clear,20,2012-11-21 15:35:00
10:55 AM,50.0,39.2,66,30.17,7.0,North,12.7,17.3,N/A,,Clear,10,2012-11-21 15:55:00
11:15 AM,51.8,37.4,58,30.17,10.0,NE,11.5,16.1,N/A,,Clear,40,2012-11-21 16:15:00
11:55 AM,51.8,37.4,58,30.15,10.0,North,9.2,-,N/A,,Clear,10,2012-11-21 16:55:00
12:15 PM,51.8,35.6,54,30.15,10.0,North,9.2,-,N/A,,Clear,10,2012-11-21 17:15:00
12:35 PM,53.6,33.8,47,30.14,10.0,North,9.2,16.1,N/A,,Clear,360,2012-11-21 17:35:00
12:55 PM,53.6,35.6,51,30.13,10.0,North,4.6,-,N/A,,Clear,360,2012-11-21 17:55:00
1:15 PM,55.4,35.6,47,30.13,10.0,North,5.8,-,N/A,,Clear,360,2012-11-21 18:15:00
1:35 PM,55.4,33.8,44,30.12,10.0,North,8.1,-,N/A,,Clear,350,2012-11-21 18:35:00
1:55 PM,55.4,32.0,41,30.12,10.0,North,8.1,16.1,N/A,,Clear,360,2012-11-21 18:55:00
2:15 PM,55.4,32.0,41,30.12,10.0,North,8.1,16.1,N/A,,Clear,10,2012-11-21 19:15:00
2:35 PM,55.4,33.8,44,30.12,10.0,NNE,6.9,-,N/A,,Clear,20,2012-11-21 19:35:00
2:55 PM,55.4,32.0,41,30.11,10.0,North,8.1,-,N/A,,Clear,360,2012-11-21 19:55:00
3:15 PM,55.4,32.0,41,30.12,10.0,North,6.9,-,N/A,,Clear,10,2012-11-21 20:15:00
3:35 PM,55.4,32.0,41,30.12,10.0,North,10.4,-,N/A,,Clear,360,2012-11-21 20:35:00
3:55 PM,55.4,32.0,41,30.12,10.0,North,6.9,-,N/A,,Clear,360,2012-11-21 20:55:00
4:15 PM,53.6,32.0,44,30.13,10.0,North,6.9,-,N/A,,Clear,350,2012-11-21 21:15:00
4:35 PM,53.6,32.0,44,30.13,10.0,North,6.9,-,N/A,,Clear,10,2012-11-21 21:35:00
4:55 PM,51.8,32.0,47,30.14,10.0,North,4.6,-,N/A,,Clear,10,2012-11-21 21:55:00
5:15 PM,50.0,32.0,50,30.14,10.0,North,3.5,-,N/A,,Clear,10,2012-11-21 22:15:00
5:35 PM,50.0,32.0,50,30.14,10.0,North,3.5,-,N/A,,Clear,360,2012-11-21 22:35:00
5:55 PM,50.0,32.0,50,30.15,10.0,North,3.5,-,N/A,,Clear,360,2012-11-21 22:55:00
6:15 PM,46.4,33.8,62,30.16,10.0,North,4.6,-,N/A,,Clear,360,2012-11-21 23:15:00
6:35 PM,46.4,32.0,57,30.16,10.0,North,3.5,-,N/A,,Clear,360,2012-11-21 23:35:00
6:55 PM,46.4,32.0,57,30.16,10.0,North,3.5,-,N/A,,Clear,10,2012-11-21 23:55:00
7:15 PM,44.6,32.0,61,30.17,10.0,North,4.6,-,N/A,,Clear,360,2012-11-22 00:15:00
7:35 PM,44.6,33.8,66,30.17,10.0,North,3.5,-,N/A,,Clear,360,2012-11-22 00:35:00
7:55 PM,42.8,33.8,70,30.18,10.0,North,3.5,-,N/A,,Clear,360,2012-11-22 00:55:00
8:15 PM,42.8,33.8,70,30.18,10.0,North,4.6,-,N/A,,Clear,10,2012-11-22 01:15:00
8:35 PM,42.8,33.8,70,30.18,10.0,North,4.6,-,N/A,,Clear,10,2012-11-22 01:35:00
8:55 PM,42.8,32.0,66,30.19,10.0,North,3.5,-,N/A,,Clear,350,2012-11-22 01:55:00
9:15 PM,42.8,33.8,70,30.19,10.0,North,3.5,-,N/A,,Clear,10,2012-11-22 02:15:00
9:35 PM,42.8,32.0,66,30.19,10.0,North,4.6,-,N/A,,Clear,10,2012-11-22 02:35:00
9:55 PM,41.0,32.0,70,30.19,10.0,North,4.6,-,N/A,,Clear,10,2012-11-22 02:55:00
10:15 PM,41.0,32.0,70,30.19,10.0,North,3.5,-,N/A,,Clear,10,2012-11-22 03:15:00
10:35 PM,37.4,32.0,81,30.19,10.0,North,3.5,-,N/A,,Clear,10,2012-11-22 03:35:00
10:55 PM,39.2,30.2,70,30.19,10.0,Calm,Calm,-,N/A,,Clear,0,2012-11-22 03:55:00
11:15 PM,37.4,30.2,75,30.19,10.0,Calm,Calm,-,N/A,,Clear,0,2012-11-22 04:15:00
11:35 PM,37.4,30.2,75,30.19,10.0,Calm,Calm,-,N/A,,Clear,0,2012-11-22 04:35:00
11:55 PM,37.4,30.2,75,30.19,10.0,North,3.5,-,N/A,,Clear,360,2012-11-22 04:55:00